Home   Weather   Recife   Past weeks

Flag for Brazil Past Weather in Recife, Pernambuco, Brazil — Yesterday and Last 2 Weeks

Now
81 °F

Scattered showers. Scattered clouds.


Feels Like: 88 °F
Forecast: 77 / 85 °F
Wind: 14 mph from South

Location: Recife Aeroporto

Current Time: Apr 29, 2017 at 4:59:58 pm

Latest Report: Apr 29, 2017 at 4:00 pm


Visibility: N/A

Pressure: N/A

Humidity: 94%

Dew Point: 79 °F

Location of RecifeLocation

Past Weather in Recife — Graph

°F

Recife Temperature Yesterday

Maximum temperature yesterday: 86 °F (at 9:00 am)
Minimum temperature yesterday: 81 °F (at 5:00 am)
Average temperature yesterday: 83 °F

High & Low Weather Summary for the Past Weeks

 TemperatureHumidityPressure
High88 °F (Apr 19, 11:00 am)100% (Apr 22, 5:00 am)29.98 "Hg (Apr 22, 5:00 am)
Low75 °F (Apr 20, 2:00 am)62% (Apr 20, 10:00 am)29.80 "Hg (Apr 20, 2:00 pm)
Average82 °F80%29.89 "Hg
* Reported Apr 18 6:00 pm — Apr 29 3:00 pm, Recife, Weather by CustomWeather, © 2017

Note: Actual official high and low records may vary slightly from our data, if they occured in-between our weather recording intervals... More about our weather records

Advertising

Recife Weather History for the Previous 24 Hours

Scroll right to see more
 ConditionsComfort  
Time TempWeatherWind HumidityBarometerVisibility
3:00 pm
Sat, Apr 29
84 °FScattered clouds.12 mph79%29.86 "HgN/A
2:00 pm86 °FScattered clouds.13 mph75%29.86 "HgN/A
1:00 pm82 °FScattered showers. Scattered clouds.15 mph84%29.89 "Hg5 mi
12:00 pm86 °FScattered clouds.14 mph75%29.92 "HgN/A
11:00 am86 °FScattered clouds.12 mph75%29.92 "HgN/A
10:00 am86 °FScattered clouds.10 mph75%29.95 "HgN/A
9:00 am84 °FPartly sunny.9 mph74%29.95 "HgN/A
8:00 am84 °FPassing clouds.7 mph79%29.95 "HgN/A
7:00 am79 °FScattered clouds.7 mph89%29.92 "HgN/A
6:00 am77 °FScattered clouds.7 mph94%29.92 "HgN/A
5:00 am77 °FPassing clouds.6 mph89%29.89 "HgN/A
4:00 am77 °FPassing clouds.6 mph89%29.89 "HgN/A
3:00 am77 °FPassing clouds.5 mph89%29.89 "HgN/A
2:00 am79 °FPassing clouds.6 mph89%29.92 "HgN/A
1:00 am79 °FPassing clouds.6 mph89%29.92 "HgN/A
12:00 am79 °FPassing clouds.6 mph89%29.95 "HgN/A
11:00 pm
Fri, Apr 28
81 °FPassing clouds.6 mph84%29.95 "HgN/A
10:00 pm81 °FPassing clouds.12 mph84%29.95 "HgN/A
9:00 pm82 °FPassing clouds.9 mph79%29.95 "HgN/A
8:00 pm82 °FPassing clouds.9 mph79%29.92 "HgN/A
7:00 pm82 °FPassing clouds.12 mph79%29.92 "HgN/A
6:00 pm82 °FPassing clouds.12 mph79%29.92 "HgN/A
5:00 pm84 °FScattered clouds.14 mph74%29.89 "HgN/A
4:00 pm84 °FScattered clouds.14 mph79%29.86 "HgN/A
Weather by CustomWeather, © 2017

See weather overviewHow to use our weather pages